Location: Unspecified
(34.1750°S, 150.8048°E)
Time: 20:12:06
(UTC+10:00)

Tiangong 2 - Visible Passes

Search period start: 26 May 2018 00:00
Search period end: 05 June 2018 00:00
Orbit: 382 x 385 km, 42.8° (Epoch: 26 May)

Date Brightness Start Highest point End Pass type
(mag) Time Alt. Az. Time Alt. Az. Time Alt. Az.
26 May 4.0 05:15:18 10° N 05:17:26 17° NE 05:19:34 10° E visible
27 May 1.4 05:50:55 10° NW 05:54:05 68° NNE 05:57:18 10° ESE visible
28 May 2.8 04:54:35 32° NE 04:54:35 32° NE 04:57:17 10° E visible
29 May 1.1 05:30:30 48° W 05:31:09 63° SSW 05:34:22 10° SE visible
30 May 4.2 04:33:58 14° ESE 04:33:58 14° ESE 04:34:31 10° ESE visible
30 May 2.4 06:06:11 14° WSW 06:08:16 25° SSW 06:11:01 10° SE visible
31 May 2.8 05:09:29 26° SSE 05:09:29 26° SSE 05:11:18 10° SE visible
01 Jun 2.8 05:44:52 19° SSW 05:45:28 20° S 05:47:58 10° SE visible
02 Jun 4.1 04:47:57 11° SE 04:47:57 11° SE 04:48:11 10° SE visible
02 Jun 3.1 06:20:34 10° SW 06:22:50 17° S 06:25:05 10° SE visible
03 Jun 3.2 05:23:10 17° S 05:23:10 17° S 05:25:00 10° SE visible
04 Jun 3.1 05:58:20 13° SSW 06:00:03 19° S 06:02:27 10° SE visible
